カタログに戻る

COSMOS 2251 DEB

運用中LEO
NORAD 36366·DEBRIS·🇷🇺 Russia

打ち上げ Jun 16, 1993 から Plesetsk Cosmodrome

Loading…

次のパス (今後24時間)

TLE

古いSource: Space-Track

元期: Sep 3, 2026, 10:11 UTC

1 36366U 93036AYT 26246.42433997  .00001699  00000-0  57576-3 0  9994
2 36366  74.0642 149.0450 0086331 113.5141 247.5113 14.35395098900840

AllMySatでCOSMOS 2251 DEBをリアルタイム追跡

Download on the App Store